Winter Haven, FL

10:05 PM EDT on June 22, 2017 (GMT -0400)
Winter Haven's-Gilbert

Weather History for KGIF - February, 2014

Change the Weather History Date:

Thursday, February 20, 2014

  Actual Average Record
Temperature  
Mean Temperature 70 °F -  
Max Temperature 84 °F 77 °F 88 °F (1949)
Min Temperature 55 °F 51 °F 32 °F (2015)
Cooling Degree Days 4    
Growing Degree Days 20 (Base 50)    
Moisture  
Dew Point 60 °F    
Average Humidity 78    
Maximum Humidity 100    
Minimum Humidity 43    
Precipitation  
Precipitation 0.00 in - - ()
Sea Level Pressure  
Sea Level Pressure 30.13 in    
Wind  
Wind Speed 6 mph (ESE)    
Max Wind Speed 17 mph    
Max Gust Speed 24 mph    
Visibility 6 miles    
Events Fog    
Averages and records for this station are not official NWS values.
T = Trace of Precipitation, MM = Missing Value Source: NWS Daily Summary

Daily Weather History Graph

Daily Weather History Graph

Search for Another Location

Airport or City:

Trip Planner

Search our weather history database for the weather conditions in past years. The results will help you decide how hot, cold, wet, or windy it might be!

Date:

Astronomy

Feb. 20, 2014 Rise Set
Actual Time 7:00 AM EST 6:21 PM EST
Civil Twilight 6:36 AM EST 6:45 PM EST
Nautical Twilight 6:09 AM EST 7:12 PM EST
Astronomical Twilight 5:41 AM EST 7:40 PM EST
Moon 11:41 PM EST (2/20) 10:12 AM EST (2/20)
Length of Visible Light 12h 08m
Length of Day
11h 21m
Waning Gibbous, 71% of the Moon is Illuminated
Feb 20
Waning Gibbous
Feb 22
Last Quarter
Mar 1
New
Mar 8
First Quarter
Mar 16
Full

Hourly Weather History & Observations

Time (EST) Temp. Heat Index Dew Point Humidity Pressure Visibility Wind Dir Wind Speed Gust Speed Precip Events Conditions
12:53 AM 66.0 °F - 60.1 °F 81% 30.12 in 10.0 mi SE 8.1 mph - N/A   Clear
1:53 AM 66.0 °F - 60.1 °F 81% 30.12 in 10.0 mi SSE 4.6 mph - N/A   Clear
2:53 AM 66.0 °F - 61.0 °F 84% 30.11 in 10.0 mi SSE 5.8 mph - N/A   Clear
3:53 AM 64.0 °F - 61.0 °F 90% 30.12 in 10.0 mi East 3.5 mph - N/A   Clear
4:53 AM 61.0 °F - 57.9 °F 90% 30.13 in 9.0 mi East 4.6 mph - N/A   Clear
5:53 AM 60.1 °F - 59.0 °F 96% 30.14 in 2.5 mi ENE 3.5 mph - N/A   Clear
5:55 AM 60.1 °F - 57.9 °F 93% 30.15 in 1.0 mi ENE 3.5 mph - N/A   Clear
5:59 AM 57.9 °F - 57.0 °F 97% 30.15 in 0.5 mi ENE 3.5 mph - N/A Fog Fog
6:07 AM 59.0 °F - 57.9 °F 96% 30.15 in 0.2 mi NE 3.5 mph - N/A Fog Fog
6:27 AM 60.1 °F - 57.9 °F 93% 30.16 in 1.2 mi NNE 3.5 mph - N/A   Partly Cloudy
6:37 AM 60.1 °F - 59.0 °F 96% 30.17 in 1.0 mi Calm Calm - N/A   Mist
6:41 AM 59.0 °F - 57.9 °F 96% 30.16 in 0.8 mi Calm Calm - N/A   Clear
6:48 AM 60.8 °F - 57.2 °F 88% 30.16 in 0.2 mi Calm Calm - N/A Fog Fog
6:53 AM 60.1 °F - 57.9 °F 93% 30.16 in 0.5 mi Calm Calm - N/A Fog Fog
7:11 AM 55.9 °F - 55.9 °F 100% 30.17 in 0.2 mi East 4.6 mph - N/A Fog Fog
7:21 AM 57.0 °F - 57.0 °F 100% 30.17 in 1.0 mi Calm Calm - N/A   Mist
7:23 AM 57.9 °F - 57.0 °F 97% 30.17 in 2.0 mi North - - N/A   Partly Cloudy
7:26 AM 57.9 °F - 57.0 °F 97% 30.17 in 3.0 mi East 3.5 mph - N/A   Partly Cloudy
7:53 AM 62.1 °F - 61.0 °F 96% 30.17 in 4.0 mi East 3.5 mph - N/A   Clear
8:53 AM 68.0 °F - 63.0 °F 84% 30.18 in 10.0 mi SE 5.8 mph - N/A   Clear
9:53 AM 73.9 °F - 63.0 °F 68% 30.19 in 10.0 mi SE 11.5 mph - N/A   Clear
10:53 AM 77.0 °F - 63.0 °F 62% 30.18 in 10.0 mi SE 17.3 mph 24.2 mph N/A   Clear
11:53 AM 79.0 °F - 61.0 °F 54% 30.17 in 10.0 mi SE 13.8 mph - N/A   Clear
12:53 PM 81.0 °F 81.6 °F 60.1 °F 49% 30.14 in 10.0 mi SSE 8.1 mph - N/A   Clear
1:53 PM 82.9 °F 83.2 °F 60.1 °F 46% 30.11 in 10.0 mi SSE 11.5 mph - N/A   Partly Cloudy
2:53 PM 84.0 °F 83.8 °F 59.0 °F 43% 30.09 in 10.0 mi South 10.4 mph - N/A   Mostly Cloudy
3:53 PM 82.9 °F 82.8 °F 59.0 °F 44% 30.08 in 10.0 mi SE 11.5 mph - N/A   Scattered Clouds
4:53 PM 82.9 °F 82.8 °F 59.0 °F 44% 30.07 in 10.0 mi SE 10.4 mph - N/A   Partly Cloudy
5:53 PM 81.0 °F 81.6 °F 60.1 °F 49% 30.07 in 10.0 mi SE 9.2 mph - N/A   Clear
6:53 PM 77.0 °F - 60.1 °F 56% 30.08 in 10.0 mi East 4.6 mph - N/A   Clear
7:53 PM 73.9 °F - 63.0 °F 68% 30.09 in 10.0 mi East 10.4 mph - N/A   Clear
8:53 PM 73.0 °F - 64.9 °F 76% 30.10 in 10.0 mi ESE 9.2 mph - N/A   Clear
9:53 PM 71.1 °F - 64.9 °F 81% 30.11 in 10.0 mi SE 6.9 mph - N/A   Clear
10:53 PM 71.1 °F - 64.0 °F 78% 30.10 in 10.0 mi SE 8.1 mph - N/A   Clear
11:53 PM 70.0 °F - 64.0 °F 81% 30.09 in 10.0 mi SSE 6.9 mph - N/A   Clear